Regional Weather Roundup
Issued by NWS

Home | Current Version | Previous Version | Graphics & Text | Print | Product List | Glossary On
Versions: 1 2 3 4 5 6 7 8 9 10 11 12 13 14 15 16 17 18 19 20 21 22 23 24 25 26 27
000
ASUS45 KBOU 211910
RWRCO

WEATHER ROUNDUP FOR COLORADO
NATIONAL WEATHER SERVICE DENVER/BOULDER CO
100 PM MDT MON MAY 21 2018

NOTE: "FAIR" INDICATES FEW OR NO CLOUDS BELOW 12000 FEET WITH NO
SIGNIFICANT WEATHER AND/OR OBSTRUCTIONS TO VISIBILITY.

COZ001>005-013-030-031-212000-
...NORTHWEST COLORADO...

CITY           SKY/WX    TMP DP  RH WIND       PRES   REMARKS
CRAIG          FAIR      73  34  23 VRB3      30.02F
HAYDEN         FAIR      70  33  25 VRB6      30.06F
MEEKER         FAIR      75  19  12 S16G22    30.03F
RANGELY        FAIR      75  32  20 NW5       29.96F
RABBIT EARS PA MOCLDY    52  23  32 W6        30.28F
STEAMBOAT SPGS FAIR      69  30  23 N5        30.05F
WALDEN         FAIR      64  21  19 S14G20    30.14F
$$

COZ006>008-011-212000-
...WEST CENTRAL VALLEYS...

CITY           SKY/WX    TMP DP  RH WIND       PRES   REMARKS
GRAND JUNCTION FAIR      82  26  13 SW7       29.91F
MONTROSE       FAIR      76  20  12 VRB5      29.98F
EAGLE          FAIR      76  22  13 W20G32    30.06F
RIFLE          FAIR      75  27  17 W9        29.98F
DELTA          FAIR      83  20  10 CALM      29.96F
NUCLA          NOT AVBL
$$

COZ017>023-064>068-212000-
...SOUTHWEST COLORADO...

CITY           SKY/WX    TMP DP  RH WIND       PRES   REMARKS
DURANGO        FAIR      73  30  20 VRB7      30.04F
CORTEZ         FAIR      77  23  13 S16G23    29.99F
PAGOSA SPRINGS PTSUNNY   68  26  20 SW14G21   30.13F THUNDER
TELLURIDE      FAIR      64  13  13 S7G22     30.21F
WOLF CREEK PAS PTSUNNY   45  30  57 S9G28     30.43F THUNDER
$$

COZ009-010-012-014-032>034-037-058>063-212000-
...CENTRAL COLORADO...

CITY           SKY/WX    TMP DP  RH WIND       PRES   REMARKS
ASPEN          PTSUNNY   66  22  18 SW8       30.13S
BUENA VISTA    PTSUNNY   62  32  32 CALM      30.18F
COPPER MTN     FAIR      52  19  28 S6G17     30.40S
BERTHOUD PASS  PTSUNNY   41  32  70 NW10G24   30.42F
COTTONWOOD PAS CLOUDY    61  36  39 SE9       30.29F
GUNNISON       CLOUDY    66  35  31 E17       30.13F THUNDER
GRANBY         FAIR      67  22  18 W9G22     30.16F
KREMMLING      FAIR      77  18  10 NW8       30.11F
LEADVILLE      CLOUDY    56  19  23 S16G23    30.25F
MONARCH PASS   CLOUDY    46  25  42 MISG      30.50F
SALIDA         PTSUNNY   70  30  22 E7        30.20F
SUNLIGHT       FAIR      54  19  26 SW9G21    30.33S
WILKERSON PASS FAIR      52  28  40 S3        30.40F
$$

COZ069>075-212000-
...SAN LUIS VALLEY/SANGRE DE CRISTO MOUNTAINS...

CITY           SKY/WX    TMP DP  RH WIND       PRES   REMARKS
ALAMOSA        TSTM      63  32  31 VRB3      30.17F
DEL NORTE      PTSUNNY   60  37  42 SE7       30.20S THUNDER
LA VETA PASS   CLOUDY    45  28  53 MISG      30.42F
SAGUACHE       NOT AVBL
$$

COZ035-036-038>040-212000-
...NORTHERN COLORADO FRONT RANGE...

CITY           SKY/WX    TMP DP  RH WIND       PRES   REMARKS
DENVER INTL AP FAIR      75  42  30 VRB5      30.01F
AURORA         PTSUNNY   74  40  29 E5        30.02F
FRONT RANGE AP PTSUNNY   75  43  31 NE7       30.03F
ERIE MUNI ARPT FAIR      70  46  42 NE3       30.05F
BOULDER MUN AP FAIR      66  46  48 N3        30.01F
CENTENNIAL     PTSUNNY   75  42  30 N7        30.02F
BROOMFIELD     PTSUNNY   70  46  43 NE5       30.04F
FORT COLLINS   FAIR      71  52  50 CALM      30.02F
LONGMONT       FAIR      73  48  41 CALM      30.02F
$$

COZ041-046-047-076>085-087-088-212000-
...PIKES PEAK/PALMER DIVIDE AND SOUTHERN FOOTHILLS...

CITY           SKY/WX    TMP DP  RH WIND       PRES   REMARKS
COLO. SPRINGS  PTSUNNY   76  36  23 W7        30.05F
A. F. ACADEMY  FAIR      73  29  20 SE5       30.07F
SCHRIEVER AFB  NOT AVBL
CHEYENNE MTN   FAIR      70  37  30 NE3       30.05F
ELLICOTT         N/A    N/A N/A N/A SW15G22   30.05F
FALCON         FAIR      76  24  14 SW6       30.11F
FORT CARSON    PTSUNNY   80  16   9 SW17G26   30.01F
LIMON          FAIR      78  40  25 S18G26    30.01F
MONUMENT HILL  FAIR      70  21  16 S15G21    30.12F
CANON CITY     FAIR      81  37  21 S8        30.01F
WALSENBURG     FAIR      73  46  38 S10G17    30.09S
TRINIDAD       FAIR      74  48  39 SW14      30.08F
$$

COZ042>045-048>051-090-091-212000-
...NORTHEAST COLORADO...

CITY           SKY/WX    TMP DP  RH WIND       PRES   REMARKS
GREELEY ARPT   FAIR      67  51  56 NE8       30.01F
AKRON          FAIR      70  51  51 VRB6      30.01F
BURLINGTON     FAIR      77  54  44 S21G31    30.02F
WRAY           FAIR      75  54  46 S14G20    29.99F
YUMA           FAIR      70  39  32 SE8       30.00S
STERLING       FAIR      72  50  46 S5        29.98F
HOLYOKE        FAIR      73  57  56 S10G16    30.01S
FORT MORGAN    FAIR      73  46  38 E5        30.00F
$$

COZ086-089-092>099-212000-
...SOUTHEAST COLORADO...

CITY           SKY/WX    TMP DP  RH WIND       PRES   REMARKS
PUEBLO         FAIR      78  41  26 SW5       29.99F
LA JUNTA       FAIR      84  44  24 S14G21    29.97F
LAMAR          FAIR      86  51  29 MISG      29.96F
SPRINGFIELD      N/A     79  50  36 SW21G33   30.04F
$$




USA.gov is the U.S. government's official web portal to all federal, state and local government web resources and services.